Regional Weather Roundup
Issued by NWS

Home | Current Version | Previous Version | Text Only | Print | Product List | Glossary Off
Versions: 1 2 3 4 5 6 7 8 9 10 11 12 13 14 15 16 17 18 19 20 21 22 23 24 25 26 27 28 29 30 31 32 33 34 35 36 37 38 39 40 41 42 43 44 45 46 47 48 49 50

024
ASUS43 KMPX 100901
RWRMN
WEATHER ROUNDUP FOR MINNESOTA
NATIONAL WEATHER SERVICE TWIN CITIES/CHANHASSEN MN
300 AM CST WED FEB 10 2016


NOTE: "FAIR" INDICATES FEW OR NO CLOUDS BELOW 12,000 FEET WITH NO
SIGNIFICANT WEATHER AND/OR OBSTRUCTIONS TO VISIBILITY. N/A MEANS
CURRENT SKY AND/OR WEATHER CONDITIONS ARE NOT AVAILABLE.

MNZ060>063-068>070-101000-
   Twin Cities Metro

CITY           SKY/WX    TMP DP  RH WIND       PRES   REMARKS
TWIN CITIES    CLOUDY     5  -5  63 N7        30.13S WCI  -7
ST PAUL        PTCLDY     5  -4  66 NW8       30.14F WCI  -8
BLAINE         PTCLDY     5  -2  72 NW3       30.11F
LAKEVILLE      PTCLDY     1  -6  71 CALM      30.11S
EDEN PRAIRIE   PTCLDY     4  -5  66 NW5       30.12S WCI  -5
SOUTH ST PAUL  PTCLDY     6  -4  64 N5        30.12F WCI  -3
LAKE ELMO      FAIR       3  -4  72 CALM      30.12S
$$
MNZ001>005-007-008-013>017-022>024-027-028-101000-
   Northwest Minnesota

CITY           SKY/WX    TMP DP  RH WIND       PRES   REMARKS
BEMIDJI        CLOUDY   -12 -17  81 W3        30.10S
HALLOCK        CLOUDY     0  -8  71 E5        30.16F WCI -10
ROSEAU         CLOUDY    -9 -17  70 CALM      30.16R
WARROAD        PTCLDY    -9 -15  77 NE5       30.14S WCI -21
THIEF RVR FALL CLOUDY    -2  -8  78 E6        30.14F WCI -14
CROOKSTON      CLOUDY     1  -4  78 SE3       30.17S
FOSSTON          N/A     -8 -13  77 CALM      30.12F
DETROIT LAKES  CLOUDY     3   0  85 CALM      30.10F
MOORHEAD       PTCLDY     3  -2  78 E3        30.14F
PARK RAPIDS    CLOUDY    -6 -11  79 NW3       30.08F
MAHNOMEN       FAIR      -3  -6  84 E3        30.11F
$$
MNZ006-009>011-018-025>026-101000-
   North Central Minnesota

CITY           SKY/WX    TMP DP  RH WIND       PRES   REMARKS
BAUDETTE       PTCLDY   -19 -25  73 CALM      30.12F
FLAG ISLAND    PTCLDY   -15 -18  84 CALM      30.14F
INTL FALLS     PTCLDY   -10 -16  74 N3        30.12F HAZE
WASKISH        CLOUDY   -17 -22  76 CALM      30.12F
LONGVILLE      CLOUDY    -6  -9  84 CALM      30.09F
GRAND RAPIDS   CLOUDY    -8 -11  84 N7        30.07S WCI -22
CRANE LAKE     CLOUDY   -20 -26  76 CALM      30.14S
ORR            CLOUDY   -17 -22  76 CALM      30.05F
COOK           CLOUDY   -17 -20  83 CALM      30.08F
WALKER         FAIR      -7 -11  83 W3        30.10S
$$
MNZ012-019>021-037-101000-
   Northeast Minnesota

CITY           SKY/WX    TMP DP  RH WIND       PRES   REMARKS
DULUTH         FLURRIES  -7 -12  79 N6        30.03F WCI -20
ELY            CLOUDY    -6  -9  84 N5        30.04F WCI -17
HIBBING        PTCLDY   -10 -13  86 N7        30.06F WCI -25
EVELETH        CLOUDY    -6 -13  71 NE3       30.06F
DULUTH HARBOR  CLOUDY     1  -4  78 N8G18     30.14F WCI -12
TWO HARBORS    CLOUDY    -4  -9  77 CALM      30.05S
SILVER BAY     CLOUDY    -6  -9  84 CALM      30.05S
G MARAIS ARPRT CLOUDY   -11 -20  64 NW13G20   29.95S WCI -32
$$
MNZ029>031-032-039>041-046>048-054>057-064-101000-
   West Central Minnesota

CITY           SKY/WX    TMP DP  RH WIND       PRES   REMARKS
FERGUS FALLS   CLOUDY     3  -2  78 E5        30.14F WCI  -6
WHEATON        CLOUDY    10   5  79 E7        30.13F WCI   0
MORRIS         CLOUDY     7   0  72 E3        30.10F
ALEXANDRIA     CLOUDY     3  -4  72 NE7       30.10F WCI  -9
ELBOW LAKE     CLOUDY     4  -2  75 SE7       30.11F WCI  -8
WADENA         CLOUDY    -2  -6  84 N3        30.09F
GLENWOOD       PTCLDY     3  -2  78 NE7       30.10F WCI  -9
APPLETON       CLOUDY    10   3  72 E9        30.12F WCI  -2
BENSON         CLOUDY     7   0  72 CALM      30.12F
ORTONVILLE     CLOUDY    10   3  72 E5        30.11S WCI   2
MADISON        PTCLDY    12   7  79 NE5       30.12F WCI   4
WILLMAR        FAIR       7   1  78 NE5       30.13S WCI  -2
$$
MNZ033>034-036-042>043-049>051-058-059-101000-
   Central Minnesota

CITY           SKY/WX    TMP DP  RH WIND       PRES   REMARKS
ST CLOUD       PTCLDY     2  -4  76 NW6       30.13R WCI  -9
SAUK CENTRE    FAIR       1  -4  80 CALM      30.11F
PAYNESVILLE    PTCLDY     4  -2  77 N3        30.13S
AITKIN         CLOUDY    -8 -15  71 CALM      30.08F
PINE RIVER     CLOUDY    -8 -11  84 W3        30.13S
BRAINERD       CLOUDY    -2  -7  79 CALM      30.10F
STAPLES        CLOUDY    -2  -8  78 N3        30.10F
LONG PRAIRIE   FAIR       1  -4  78 NW3       30.11F
LITTLE FALLS   CLOUDY     1  -6  71 CALM      30.12F
LITCHFIELD     PTCLDY     5   0  78 NW3       30.13S
BUFFALO        CLOUDY     4  -4  68 NW3       30.14F
MAPLE LAKE     CLOUDY     5  -1  76 N7        30.13F WCI  -7
$$
MNZ037-044-045-052-053-101000-
   East Central Minnesota

CITY           SKY/WX    TMP DP  RH WIND       PRES   REMARKS
PRINCETON      CLOUDY     3  -4  72 NW3       30.12S
MORA           CLOUDY     0  -6  78 NW5       30.13S WCI -10
CAMBRIDGE        N/A      3  -6  66 CALM      30.10S
RUSH CITY      MOCLDY     1  -6  73 N5        30.12S WCI  -9
MOOSE LAKE     PTCLDY    -9 -15  77 CALM      30.08F
HINCKLEY       FAIR       0  -6  78 NW5       30.10F WCI -10
CLOQUET        CLOUDY    -6 -11  77 NW7       30.05F WCI -20
MCGREGOR       CLOUDY    -6  -9  84 N5        30.09S WCI -17
$$
MNZ071>073-080-081-089-090-097-098-101000-
   Southwest Minnesota

CITY           SKY/WX    TMP DP  RH WIND       PRES   REMARKS
MONTEVIDEO     CLOUDY     9   1  72 E8        30.14F WCI  -4
GRANITE FALLS  CLOUDY    12   5  73 N10       30.14F WCI  -2
CANBY          CLOUDY    16  10  78 NE3       30.11F
MARSHALL       MOCLDY    12   6  77 NE6       30.11S WCI   3
REDWOOD FALLS  CLOUDY     9   0  67 NE6       30.13F WCI  -1
OLIVIA         CLOUDY    10   3  72 N7        30.13S WCI   0
PIPESTONE      CLOUDY    18   7  62 CALM      30.06S
WINDOM         CLOUDY    10   7  85 NE7       30.09R WCI   0
WORTHINGTON    CLOUDY    14   3  62 N5        30.08S WCI   6
JACKSON        CLOUDY    14   9  79 NE7       30.09S WCI   4
TRACY          PTCLDY    14   9  79 NE7       30.09F WCI   4
SLAYTON        CLOUDY    13   9  83 CALM      30.08S
$$
MNZ065>067-074>077-082>085-091>093-101000-
   South Central Minnesota

CITY           SKY/WX    TMP DP  RH WIND       PRES   REMARKS
MANKATO        PTCLDY     3  -2  78 NW6       30.12R WCI  -8
NEW ULM        CLOUDY     5  -2  72 N5        30.13F WCI  -4
ST JAMES       CLOUDY     9   3  78 N7        30.13S WCI  -3
FAIRMONT       CLOUDY     9   1  72 N9        30.09F WCI  -5
GLENCOE        PTCLDY     6   1  81 NW3       30.12S
FARIBAULT        N/A      0  -6  78 CALM      30.11S
OWATONNA       CLOUDY     0  -6  78 CALM      30.09S
WASECA         PTCLDY     1  -4  78 CALM      30.11F
ALBERT LEA     CLOUDY     3  -2  78 N6        30.07F WCI  -8
$$
MNZ078>079-086>088-094>096-101000-
   Southeast Minnesota

CITY           SKY/WX    TMP DP  RH WIND       PRES   REMARKS
ROCHESTER      CLOUDY    -1  -8  72 NW10      30.05F WCI -17
RED WING       PTCLDY     0  -8  71 CALM      30.11S
STANTON        PTCLDY     1  -5  75 CALM      30.11R
DODGE CENTER   CLOUDY     0  -6  78 NW7       30.06F WCI -13
WINONA         CLOUDY     5  -2  72 NW6       30.11F WCI  -6
AUSTIN         CLOUDY     1  -2  85 NW6       30.06F WCI -10
PRESTON        CLOUDY     0  -8  70 NW8       30.05F WCI -14
$$
ABBREVIATIONS USED IN REMARKS
   TC - TEMPERATURES IN CELSIUS
  WCI - WIND CHILL INDEX
   HX - HEAT INDEX
  VSB - VISIBILITY
$$




USA.gov is the U.S. government's official web portal to all federal, state and local government web resources and services.